Location: Quaker Farms
(41.4276°N, 73.1557°W)
Time: 19:52:33
(UTC+00:00)

S-56A Canister/Altair - Pass Details

Date: 14 June 2021
Orbit: 631 x 2501 km, 38.9° (Epoch: 30 July)

Event Time Altitude Azimuth Distance (km) Brightness Sun altitude
Rises 13:36:15 0° 269° (W) 3,257 10.3 45.4°
Reaches altitude 10° 13:38:22 10° 267° (W) 2,470 9.8 45.8°
Maximum altitude 13:44:09 72° 184° (S) 1,137 9.2 46.8°
Drops below altitude 10° 13:52:57 10° 102° (ESE) 3,678 12.0 48.5°
Sets 13:56:44 0° 101° (E) 4,970 12.3 49.2°
